TimeWEST,TemperatureF,Dew PointF,Humidity,Sea Level PressureIn,VisibilityMPH,Wind Direction,Wind SpeedMPH,Gust SpeedMPH,PrecipitationIn,Events,Conditions,WindDirDegrees,DateUTC
12:00 AM,80.6,60.8,51,30.01,-9999.0,WNW,4.6,-,N/A,,Clear,290,2013-08-24 23:00:00
12:30 AM,77.0,60.8,57,30.01,-9999.0,WSW,5.8,-,N/A,,Clear,240,2013-08-24 23:30:00
1:00 AM,76,62,53,29.94,6,WSW,6.9,,,,,240,2013-08-25 00:00:00
1:00 AM,75.2,62.6,65,30.01,-9999.0,WSW,6.9,-,N/A,,Clear,240,2013-08-25 00:00:00
6:00 AM,66.2,64.4,94,29.98,5.0,WSW,6.9,-,N/A,,Unknown,250,2013-08-25 05:00:00
6:30 AM,66.2,64.4,94,29.98,-9999.0,WSW,5.8,-,N/A,,Clear,240,2013-08-25 05:30:00
7:00 AM,66.2,64.4,94,29.98,6.2,WSW,5.8,-,N/A,,Scattered Clouds,240,2013-08-25 06:00:00
7:30 AM,66.2,64.4,94,29.98,6.2,WSW,5.8,-,N/A,,Scattered Clouds,240,2013-08-25 06:30:00
8:00 AM,66.2,64.4,94,29.98,6.2,WSW,5.8,-,N/A,,Scattered Clouds,240,2013-08-25 07:00:00
8:30 AM,68.0,64.4,88,29.98,6.2,WSW,6.9,-,N/A,,Scattered Clouds,240,2013-08-25 07:30:00
9:00 AM,69.8,64.4,83,29.98,6.2,West,6.9,-,N/A,,Scattered Clouds,260,2013-08-25 08:00:00
9:30 AM,69.8,64.4,83,29.98,6.2,West,5.8,-,N/A,,Scattered Clouds,270,2013-08-25 08:30:00
10:00 AM,73,64,67,29.93,6,West,5.8,,,,Partly Cloudy,270,2013-08-25 09:00:00
10:00 AM,73.4,64.4,73,29.98,6.2,West,5.8,-,N/A,,Scattered Clouds,280,2013-08-25 09:00:00
10:30 AM,73.4,64.4,73,29.98,6.2,West,4.6,-,N/A,,Scattered Clouds,260,2013-08-25 09:30:00
11:00 AM,75.2,64.4,69,29.98,6.2,WNW,5.8,-,N/A,,Scattered Clouds,290,2013-08-25 10:00:00
11:30 AM,78.8,64.4,61,29.98,6.2,West,5.8,-,N/A,,Partly Cloudy,280,2013-08-25 10:30:00
12:00 PM,78.8,64.4,61,29.98,6.2,WSW,8.1,-,N/A,,Partly Cloudy,250,2013-08-25 11:00:00
12:30 PM,80.6,64.4,58,29.95,6.2,West,6.9,-,N/A,,Partly Cloudy,260,2013-08-25 11:30:00
1:00 PM,83,64,43,29.86,6,West,6.9,,,,Scattered Clouds,260,2013-08-25 12:00:00
1:00 PM,84.2,64.4,51,29.95,6.2,West,8.1,-,N/A,,Partly Cloudy,270,2013-08-25 12:00:00
2:00 PM,86.0,62.6,45,29.95,6.2,West,8.1,-,N/A,,Partly Cloudy,280,2013-08-25 13:00:00
2:30 PM,87.8,62.6,43,29.95,6.2,NW,9.2,-,N/A,,Partly Cloudy,310,2013-08-25 13:30:00
3:00 PM,87.8,62.6,43,29.92,6.2,West,9.2,-,N/A,,Partly Cloudy,260,2013-08-25 14:00:00
3:30 PM,89.6,62.6,40,29.92,6.2,WNW,10.4,-,N/A,,Partly Cloudy,300,2013-08-25 14:30:00
4:00 PM,90,61,28,29.79,6,WSW,10.4,,,,Scattered Clouds,250,2013-08-25 15:00:00
4:00 PM,89.6,60.8,38,29.89,6.2,WSW,10.4,-,N/A,,Partly Cloudy,250,2013-08-25 15:00:00
4:30 PM,91.4,60.8,36,29.89,6.2,WNW,10.4,-,N/A,,Partly Cloudy,300,2013-08-25 15:30:00
5:00 PM,91.4,60.8,36,29.89,6.2,WNW,9.2,-,N/A,,Partly Cloudy,290,2013-08-25 16:00:00
5:30 PM,91.4,60.8,36,29.89,6.2,West,9.2,-,N/A,,Partly Cloudy,270,2013-08-25 16:30:00
6:00 PM,91.4,59.0,34,29.89,6.2,NW,9.2,-,N/A,,Partly Cloudy,310,2013-08-25 17:00:00
6:30 PM,91.4,59.0,34,29.89,6.2,WNW,10.4,-,N/A,,Partly Cloudy,290,2013-08-25 17:30:00
7:00 PM,89,61,29,29.78,6,West,13.8,,,,Scattered Clouds,270,2013-08-25 18:00:00
7:00 PM,89.6,60.8,38,29.89,6.2,West,12.7,-,N/A,,Partly Cloudy,280,2013-08-25 18:00:00
7:30 PM,86.0,60.8,43,29.89,6.2,West,15.0,-,N/A,,Partly Cloudy,260,2013-08-25 18:30:00
8:00 PM,86.0,60.8,43,29.89,6.2,WSW,11.5,-,N/A,,Partly Cloudy,250,2013-08-25 19:00:00
8:30 PM,84.2,60.8,45,29.89,6.2,NW,11.5,-,N/A,,Partly Cloudy,320,2013-08-25 19:30:00
9:00 PM,80.6,60.8,51,29.92,-9999.0,NW,12.7,-,N/A,,Clear,320,2013-08-25 20:00:00
9:30 PM,78.8,59.0,51,29.92,-9999.0,NW,11.5,-,N/A,,Clear,320,2013-08-25 20:30:00
10:00 PM,77,60,45,29.87,6,WNW,9.2,,,,,300,2013-08-25 21:00:00
10:00 PM,77.0,60.8,57,29.95,-9999.0,WNW,9.2,-,N/A,,Clear,300,2013-08-25 21:00:00
10:30 PM,75.2,59.0,57,29.95,-9999.0,West,8.1,-,N/A,,Clear,270,2013-08-25 21:30:00
11:00 PM,75.2,60.8,61,29.95,-9999.0,WSW,10.4,-,N/A,,Clear,250,2013-08-25 22:00:00
11:30 PM,73.4,60.8,65,29.95,-9999.0,WSW,11.5,-,N/A,,Clear,250,2013-08-25 22:30:00